Regional Weather Roundup
Issued by NWS

Home | Current Version | Previous Version | Graphics & Text | Print | Product List | Glossary Off
Versions: 1 2 3 4 5 6 7 8 9 10 11 12 13 14 15 16 17 18 19 20 21 22 23 24 25 26 27 28 29 30 31 32 33 34 35 36 37 38 39 40 41 42 43 44 45 46 47 48 49 50

030
ASUS43 KMKX 250711
RWRWI

WISCONSIN REGIONAL WEATHER ROUNDUP
NATIONAL WEATHER SERVICE MILWAUKEE/SULLIVAN WI
100 AM CST SAT NOV 25 2017

NOTE: "FAIR" INDICATES FEW OR NO CLOUDS BELOW 12,000 FEET WITH NO
SIGNIFICANT WEATHER AND/OR OBSTRUCTIONS TO VISIBILITY.

WIZ001-002-006>008-014>016-023>028-250800-
NORTHWEST WISCONSIN

CITY           SKY/WX    TMP DP  RH WIND       PRES   REMARKS
SUPERIOR ARPT  CLOUDY    39  30  69 W16       29.66R WCI  30
ASHLAND        CLOUDY    39  32  76 W12       29.62R WCI  32
HAYWARD        PTCLDY    38  29  70 W12G20    29.66R WCI  30
SIREN          CLEAR     35  31  86 W8        29.72S WCI  28
CUMBERLAND     CLEAR     34  32  93 W10       29.70S WCI  26
RICE LAKE      CLEAR     34  32  91 W5        29.72R WCI  30
CHETEK         CLEAR     36  33  87 W8        29.70S WCI  30
LADYSMITH      CLEAR     37  32  83 W13       29.68R WCI  28
EAU CLAIRE     CLEAR     37  32  82 W10       29.72R WCI  30
MENOMONIE      CLEAR     37  33  83 W8        29.73R WCI  31
NEW RICHMOND   PTCLDY    37  31  78 NW13      29.75R WCI  29
OSCEOLA        PTCLDY    38  32  78 W10       29.78R WCI  31
$$

WIZ003>005-009-010-017-018-250800-
NORTH CENTRAL WISCONSIN

CITY           SKY/WX    TMP DP  RH WIND       PRES   REMARKS
MANITOWISH WTR CLOUDY    36  34  92 W13       29.58S WCI  27
ARBOR VITAE    CLOUDY    39  35  84 W7        29.58R WCI  34
WOODRUFF       CLOUDY    39  35  84 W7        29.58R WCI  34
RHINELANDER    CLOUDY    38  33  82 W14G22    29.58R WCI  30
EAGLE RIVER    CLOUDY    37  32  82 W12G17    29.55S WCI  29
LAND O LAKES   CLOUDY    35  32  90 NW10      29.57R WCI  27
PHILLIPS       CLOUDY    37  32  84 W8        29.62S WCI  30
TOMAHAWK       PTCLDY    36  30  78 W8G17     29.61R WCI  30
MEDFORD        PTCLDY    35  30  81 W10       29.64R WCI  27
MERRILL        CLOUDY    40  32  75 NW10      29.62R WCI  33
$$

WIZ029-030-035-036-043>047-250800-
CENTRAL WISCONSIN

CITY           SKY/WX    TMP DP  RH WIND       PRES   REMARKS
WAUSAU         CLOUDY    40  32  73 W14       29.62R WCI  32
MOSINEE        CLOUDY    37  34  87 W15G22    29.65R WCI  28
MARSHFIELD     PTCLDY    38  32  79 W12       29.65R WCI  30
STEVENS POINT  CLOUDY    39  33  79 W5        29.65R
WAUPACA        PTCLDY    44  35  71 W7        29.64S
WAUTOMA        CLOUDY    42  35  76 W8        29.66S
WISC RAPIDS    CLOUDY    42  35  76 NW13G22   29.68R
CAMP DOUGLAS   CLEAR     39  35  87 W9        29.70R WCI  32
$$

WIZ011>013-019>022-031-037>040-048>050-250800-
NORTHEAST WISCONSIN

CITY           SKY/WX    TMP DP  RH WIND       PRES   REMARKS
ANTIGO         CLOUDY    37  33  82 W9        29.59S WCI  31
SHAWANO        PTCLDY    43  35  73 W7        29.61R
OCONTO         PTCLDY    42  31  66 NW7       29.59R
STURGEON BAY   CLOUDY    43  34  70 NW15      29.58R
GREEN BAY      MOCLDY    43  38  82 NW12      29.61R
MANITOWOC      CLOUDY    46  37  71 NW20G26   29.61R
APPLETON       MOCLDY    43  32  65 NW18G26   29.62R
CLINTONVILLE   PTCLDY    41  34  75 NW9       29.61S
OSHKOSH        PTCLDY    44  36  73 NW14G23   29.63R
$$

WIZ032>034-041-042-053>061-250800-
SOUTHWEST WISCONSIN

CITY           SKY/WX    TMP DP  RH WIND       PRES   REMARKS
LA CROSSE      CLEAR     40  34  79 W7        29.75R
SPARTA         CLEAR     41  34  75 NW9G16    29.74R
VIROQUA        CLEAR     40  35  83 NW8       29.73R WCI  34
BOSCOBEL       CLEAR     45  34  65 W7        29.76R
PRAIRIE DU CHI CLEAR     41  32  69 W6        29.78R
PLATTEVILLE    CLEAR     43  38  83 NW13      29.75R
$$

WIZ056-057-062-063-064-067-068-250800-
SOUTH CENTRAL WISCONSIN

CITY           SKY/WX    TMP DP  RH WIND       PRES   REMARKS
REEDSBURG      CLEAR     42  35  75 NW12      29.70R
BARABOO/DELLS  PTCLDY    43  34  71 NW8G17    29.69R
LONE ROCK      CLEAR     45  38  76 W9G21     29.73R
MINERAL POINT  CLEAR     45  37  76 NW10G17   29.73R
MADISON        PTCLDY    46  37  71 NW10      29.69R
MIDDLETON      PTCLDY    46  37  73 NW15      29.70R
WATERTOWN      PTCLDY    44  38  80 NW13G20   29.66R
MONROE         CLEAR     45  36  70 NW13G18   29.71R
JANESVILLE     MOCLDY    46  37  71 NW13      29.69R
$$

WIZ051-052-058>065-066-070>072-250800-
SOUTHEAST WISCONSIN

CITY           SKY/WX    TMP DP  RH WIND       PRES   REMARKS
MILWAUKEE      MOCLDY    51  41  68 NW13      29.64R
WAUKESHA       CLOUDY    45  37  76 NW22G29   29.66R
MILWAUKEE/TIMM CLOUDY    46  36  66 NW13G28   29.65R
RACINE         MOCLDY    50  41  71 NW20G32   29.65R
BURLINGTON     MOCLDY    51  44  79 NW17G23   29.66R
KENOSHA        PTCLDY    50  40  68 NW15G29   29.64R
FOND DU LAC    CLOUDY    46  35  65 NW16G23   29.64R
SHEBOYGAN      CLOUDY    46  40  79 NW10      29.62R
WEST BEND      CLOUDY    45  37  76 NW18G28   29.64R
JUNEAU         PTCLDY    43  36  75 NW6       29.67R
$$

LSZ147-162-250800-
LAKE SUPERIOR

STATION/POSITION TIME  TEMP    WIND        PRES    WAVE
                       AIR SEA DIR/SP/G            HT/PER
                 (UTC) (F)     (DEG/KT/KT) (MB)    (FT/S)
DEVILS ISLAND    0700   40     290/ 27/ 32 1002.5R
SAXON HARBOR     0640   40     230/  5/  9 1002.4R
$$

LMZ867-665-643>646-250800-
LAKE MICHIGAN

STATION/POSITION TIME  TEMP    WIND        PRES    WAVE
                       AIR SEA DIR/SP/G            HT/PER
                 (UTC) (F)     (DEG/KT/KT) (MB)    (FT/S)
N MID LAKE BUOY  0550   46 47  290/ 19/ 23  999.3R   5/ 8
NORTHPORT PIER   0640   44     310/ 18/ 25 1000.7R
KEWAUNEE LAKESHO 0630   45     310/  8/ 13 1000.7R
SHEBOYGAN LAKESH 0700   47     310/ 14/ 17 1003.0R
PORT WASHINGTON  0640   49     310/  9/ 25 1003.7R
MILWAUKEE LAKESH 0650   50     320/ 16/ 22   N/A
S MID LAKE BUOY  0550   50 47  330/ 14/ 16 1001.3R   4/ 6
KENOSHA   LAKESH 0700   51     310/ 12/ 21 1004.1
$$

TC  - TEMPERATURE IN CELSIUS
VSB - VISIBILITY IN STATUTE MILES
WCI - WIND CHILL INDEX
HX  - HEAT INDEX





USA.gov is the U.S. government's official web portal to all federal, state and local government web resources and services.